Miscellaneous Local Product
Issued by NWS Hastings, NE

Home | Current Version | Previous Version | Text Only | Print | Product List | Glossary Off
Versions: 1 2 3 4 5 6 7 8 9 10 11 12 13 14 15 16 17 18 19 20 21 22 23 24 25 26 27 28 29 30 31 32 33 34 35 36 37 38 39 40 41 42 43 44 45 46 47 48 49 50

000
AXUS43 KGID 161502
MISGRI

GID CWA HOURLY WEATHER ROUNDUP
NATIONAL WEATHER SERVICE HASTINGS NE
900 AM CST SAT DEC 16 2017

NOTE: "FAIR" INDICATES FEW OR NO CLOUDS BELOW 12,000 FEET WITH NO
SIGNIFICANT WEATHER AND/OR OBSTRUCTIONS TO VISIBILITY.

...SOUTH CENTRAL NEBRASKA...

CITY           SKY/WX    TMP DP  RH WIND       PRES   REMARKS
GRAND ISLAND   PTCLDY    37  25  61 N8        29.79R WCI  31
KEARNEY        CLOUDY    38  22  52 N10       29.78  WCI  31
HASTINGS       CLOUDY    37  22  54 N8        29.78R WCI  31
ORD            CLOUDY    33  26  75 N9        29.81R WCI  25
AURORA         PTCLDY    33  25  74 N7        29.79R WCI  26
LEXINGTON      PTCLDY    35  22  60 NW5       29.79R WCI  31
HOLDREGE       PTCLDY    36  21  55 N8        29.77R WCI  30
HEBRON         CLOUDY    31  23  72 CALM      29.79R

...NEBRASKA PANHANDLE...

CITY           SKY/WX    TMP DP  RH WIND       PRES   REMARKS
CHADRON        CLOUDY    29  20  69 N3        29.90R
ALLIANCE       CLOUDY    29  17  61 N9        29.84R WCI  20
SCOTTSBLUFF    CLOUDY    38  17  42 NE8       29.84R WCI  32
SIDNEY         CLOUDY    35   8  32 N10       29.82R WCI  27

...WESTERN AND NORTH CENTRAL NEBRASKA...

CITY           SKY/WX    TMP DP  RH WIND       PRES   REMARKS
VALENTINE      CLOUDY    36  26  67 N10       29.86R WCI  28
AINSWORTH      CLOUDY    35  27  73 NW8       29.84R WCI  29
ONEILL         CLOUDY    34  28  77 NW6       29.83R WCI  29
BROKEN BOW     CLOUDY    37  24  59 N8        29.81R WCI  31
IMPERIAL       CLOUDY    34  15  46 N9        29.79R WCI  27
NORTH PLATTE   CLOUDY    29  23  78 CALM      29.81R
MCCOOK         CLOUDY    28  15  58 W3        29.77R

...EASTERN NEBRASKA...

CITY           SKY/WX    TMP DP  RH WIND       PRES   REMARKS
NORFOLK        PTCLDY    32  25  75 W3        29.79R
SO SIOUX CITY  PTCLDY    29  23  78 CALM      29.81R
TEKAMAH        MOSUNNY   31  21  66 S6        29.81R WCI  25
COLUMBUS       PTCLDY    32  25  75 W3        29.81R
ALBION         PTCLDY    32  25  75 NW7       29.81R WCI  26
OMAHA EPPLEY   CLOUDY    33  23  66 SE3       29.80R
OFFUTT AFB     CLOUDY    28  22  79 S3        29.80R
MILLARD        CLOUDY    32  24  72 CALM      29.80S
LINCOLN        CLOUDY    31  23  72 S5        29.81R WCI  26
NEBRASKA CITY  CLOUDY    36  26  66 SW5       29.81R WCI  32
BEATRICE       CLOUDY    32  25  75 CALM      29.80S
FALLS CITY     CLOUDY    36  25  64 S3        29.83R

...NORTHERN KANSAS...

CITY           SKY/WX    TMP DP  RH WIND       PRES   REMARKS
GOODLAND       CLOUDY    32  13  45 N7        29.74R WCI  26
HILL CITY      CLEAR     28  15  58 NW3       29.75S
NORTON         SUNNY     34  12  40 NW8       29.75R WCI  27
PHILLIPSBURG   CLEAR     30  16  55 CALM      29.78R
HAYS           CLOUDY    29  19  66 SW7       29.78S WCI  22
RUSSELL        CLOUDY    30  21  69 S9        29.77R WCI  22
CONCORDIA      CLOUDY    36  23  59 SW5       29.80R WCI  32
SALINA         CLOUDY    36  25  64 S10       29.83S WCI  28
TOPEKA         SUNNY    N/A N/A N/A S10       29.87R



USA.gov is the U.S. government's official web portal to all federal, state and local government web resources and services.